TOPEX/POSEIDON

Satellite information

Favourite Embed

Satellite Type and Status

PAYLOADIN ORBIT

Key statistics

Satellite TOPEX/POSEIDON at a glance.

Uptime

12020

Days in orbit

Revolutions

≈ 12.8

Per day

Orbit

LEO

Low Earth Orbit

Inclination

66.0

Latest

Satellite identification and parameters

Extended collection of information and parameters for TOPEX/POSEIDON.

Object identification

Identified? True

Debris? False

Object name: TOPEX/POSEIDON

International designator: 1992-052A

Object number (NORAD): 22076

Object ID (CCSDS): 22076

Country: UNITED STATES OF AMERICA (US)

Current information (Y/N): Y

RCS size: LARGE

Orbital parameters

Period: 112.405 minutes

Inclination: 66.0406 deg

SMA: 7715.257 km

Apoapsis: 1343.063 km

Periapsis: 1331.18 km

RAAN: 127.5175 deg

Eccentricy: 0.0007701

Argument of periapsis: 270.9611 deg

Mean anomaly: 98.2634 deg

Mean motion: 12.81082786 rev/day

Mean motion (dot): -0.00000077 rev/day2

B* drag term: -0.00006886 1/REarth

Two-line elements (TLE)

Creation date: July 7, 2025, 10:26 p.m.

Reference frame: TEME

Reference center: EARTH

Epoch: July 7, 2025, 9:05 p.m. UTC

TLE line 0: 0 TOPEX/POSEIDON

TLE line 1: 1 22076U 92052A 25188.87914072 -.00000077 00000-0 -68860-4 0 9995

TLE line 2: 2 22076 66.0406 127.5175 0007701 270.9611 98.2634 12.81082786539439

Live tracking on map

Real-time ground track for satellite TOPEX/POSEIDON.

In-orbit conjunctions

There are no conjunctions computed for TOPEX/POSEIDON, at the moment. Check back to stay up to date, as we update our databases every day.

Go to all conjunctions

Associated space launch

The TOPEX/POSEIDON satellite was launched on 10 August 1992 with the objective of "observing and understanding the ocean circulation". A joint project between NASA, the U.S. space agency, and CNES, the French space agency, it carries two radar altimeters and precise orbit determination systems, including the DORIS system. KITSAT-1 (Korean Institute of Technology Satellite) was a collaborative research mission, encompassing the installation of a groundstation in South Korea, participation of Korean engineers in the UoSAT-5 mission, technology transfer and training of students on the MSc courses at Surrey, and the involvement in a engineering and flight microsatellites. The S80/T satellite was built for CNES by Matra Marconi Space using the Surrey Satellite Technology Microbus (Uosat) bus.

TOPEX/POSEIDON was lifted into orbit during the mission ‘Ariane 42P | Topex-Poseidon, Kitsat 1 & S80/T’, on board a Ariane 42P space rocket.

The launch took place on Aug. 10, 1992, 11:08 p.m. from Ariane Launch Area 2.

For more information about the launch, click the button.

Launch to space Ariane 42P | Topex-Poseidon, Kitsat 1 & S80/T
Ariane 42P | Topex-Poseidon, Kitsat 1 & S80/T

Agency: N/A

Status: Launch Successful

Launch date: Aug. 10, 1992, 11:08 p.m. UTC

Rocket: Ariane 42P

Launch pad: Ariane Launch Area 2

Location: Guiana Space Centre, French Guiana

...

Latest news about this satellite

There are no fresh news available about this satellite. Check back as we update our databases every day.


Newsletter sign-up

Weekly statistics, charts and insights to help you stay on top of the space industry.